Вернуться в каталог

ONEWEB-0279

АктивенСвязьPO
NORAD 48997·PAYLOAD·🇬🇧 United Kingdom

Запущен Jul 1, 2021 с Vostochny Cosmodrome

Loading…

Ближайшие Пролёты (ближайшие 24 часа)

TLE

СвежийSource: CelesTrak SupGP

Эпоха: Sep 14, 2026, 13:51 UTC

1 48997C 21060AG  26257.57757361 -.00000499  00000+0 -13067-2 0  2578
2 48997  87.9148 211.0237 0002258  76.0071 319.1267 13.16590601    12

Отслеживайте ONEWEB-0279 в реальном времени с AllMySat

Download on the App Store